Location: Poughquag
(41.6090°N, 73.6820°W)
Time: 05:01:12
(UTC-04:00)

STARLINK-1331 - Pass Details

Date: 29 May 2020
Orbit: 549 x 550 km, 53.0° (Epoch: 26 September)

Event Time Altitude Azimuth Distance (km) Brightness Sun altitude
Rises 02:58:09 0° 297° (WNW) 2,718 7.1 -20.3°
Reaches altitude 10° 03:01:05 10° 318° (NW) 1,824 6.5 -20.0°
Maximum altitude 03:03:47 17° 359° (N) 1,446 6.5 -19.7°
Drops below altitude 10° 03:06:30 10° 40° (NE) 1,824 7.5 -19.5°
Sets 03:09:26 0° 62° (ENE) 2,718 8.2 -19.2°
